Home > Weather > Mattersburg > Past weeks

Flag for Austria Weather for the Past 2 Weeks in Mattersburg, Burgenland, Austria

Now
41 °F

Quite cool.


Feels Like: 35 °F
Forecast: 29 / 44 °F
Wind: 10 mph from Northwest

Location: Eisenstadt

Current Time: Feb 10, 2016 at 12:54:56 PM

Latest Report: Feb 10, 2016 at 12:00 PM


Visibility: N/A

Pressure: 29.32 "Hg

Humidity: 73%

Dew point: 33 °F

Location of MattersburgLocation

Historic Weather in Mattersburg — Graph

°F

Mattersburg Temperature Yesterday

Maximum temperature yesterday: 56 °F (at 3:00 PM)
Minimum temperature yesterday: 44 °F (at 4:00 AM)
Average temperature yesterday: 52 °F

High & Low Weather Summary for the Past Weeks

 TemperatureHumidityPressure
High60 °F (Feb 1, 1:00 PM)100% (Jan 30, 8:00 PM)30.43 "Hg (Jan 30, 8:00 PM)
Low30 °F (Jan 27, 8:00 AM)42% (Feb 7, 11:00 AM)29.26 "Hg (Feb 10, 10:00 AM)
Average44 °F79%30.06 "Hg
* Reported Jan 26 11:00 AM — Feb 10 11:00 AM, Mattersburg, Weather by CustomWeather, © 2016

Note: Actual official high and low records may vary slightly from our data, if they occured in-between our weather recording intervals... More about our weather records

Advertising

Mattersburg Weather History for the Previous 24 Hours

 ConditionsComfort  
Time TempWeatherWind HumidityBarometerVisibility
11:00 AM
Wed, Feb 10
40 °FQuite cool.12 mph74%29.29 "HgN/A
10:00 AM40 °FLight rain. Overcast.10 mph78%29.26 "Hg6 mi
9:00 AM40 °FFog.8 mph81%29.29 "HgN/A
8:00 AM40 °FFog.6 mph86%29.29 "HgN/A
7:00 AM42 °FLight rain. Overcast.6 mph76%29.29 "Hg6 mi
5:00 AM42 °FRain. Overcast.5 mph85%29.32 "Hg6 mi
4:00 AM43 °FRain. Overcast.3 mph89%29.35 "Hg6 mi
3:00 AM50 °FFog.5 mph74%29.32 "HgN/A
1:00 AM52 °FCool.6 mph64%29.29 "HgN/A
12:00 AM52 °FCool.6 mph65%29.32 "HgN/A
11:00 PM
Tue, Feb 9
53 °FCool.8 mph64%29.35 "HgN/A
10:00 PM52 °FOvercast.7 mph65%29.38 "Hg9 mi
9:00 PM53 °FCool.8 mph66%29.41 "HgN/A
8:00 PM53 °FCool.9 mph66%29.41 "HgN/A
7:00 PM53 °FOvercast.14 mph63%29.41 "Hg12 mi
6:00 PM54 °FCool.8 mph60%29.47 "HgN/A
5:00 PM56 °FRefreshingly cool.10 mph57%29.50 "HgN/A
3:00 PM56 °FRefreshingly cool.7 mph55%29.60 "HgN/A
2:00 PM55 °FCool.6 mph57%29.67 "HgN/A
1:00 PM52 °FOvercast.3 mph69%29.71 "Hg12 mi
12:00 PM53 °FCool.5 mph68%29.77 "HgN/A
Weather by CustomWeather, © 2016

See weather overviewHow to use our weather pages